Location: B?dargowo
(53.3916°N, 14.4413°E)
Time: 14:53:58
(UTC+00:00)

Cosmos 2074 Rocket - Visible Passes

Search period start: 22 September 2023 00:00
Search period end: 02 October 2023 00:00
Orbit: 966 x 987 km, 82.9° (Epoch: 21 September)

Date Brightness Start Highest point End Pass type
(mag) Time Alt. Az. Time Alt. Az. Time Alt. Az.
22 Sep 7.3 04:11:00 10° E 04:13:48 13° ENE 04:16:37 10° NE visible
22 Sep 6.4 18:26:56 10° NNW 18:31:48 25° W 18:36:40 10° SW visible
23 Sep 7.0 18:53:37 10° NW 18:56:57 15° WNW 19:00:17 10° WSW visible
24 Sep 5.4 17:32:18 10° NNW 17:38:10 44° W 17:44:01 10° SSW visible
25 Sep 7.5 03:43:31 10° E 03:45:34 12° ENE 03:47:37 10° NE visible
25 Sep 6.3 17:58:23 10° NNW 18:03:31 28° W 18:08:38 10° SW visible
26 Sep 7.0 04:06:21 10° ESE 04:10:38 20° ENE 04:14:55 10° NE visible
26 Sep 7.0 18:24:53 10° NW 18:28:41 17° WNW 18:32:31 10° WSW visible
28 Sep 7.7 03:16:44 10° ENE 03:17:20 10° ENE 03:17:56 10° ENE visible
28 Sep 6.2 17:29:51 10° NNW 17:35:12 31° W 17:40:34 10° SW visible
29 Sep 7.1 03:38:27 10° ESE 03:42:22 18° ENE 03:46:16 10° NE visible
29 Sep 7.0 17:56:13 10° NW 18:00:26 19° WNW 18:04:39 10° WSW visible
30 Sep 6.3 04:02:24 10° SE 04:07:33 29° E 04:12:44 10° NNE visible
30 Sep 7.5 18:23:40 10° NW 18:25:29 11° WNW 18:27:18 10° W visible
01 Oct 5.4 04:27:04 10° SSE 04:32:54 46° E 04:38:47 10° NNE visible
01 Oct 6.0 17:01:21 10° NNW 17:06:54 35° W 17:12:27 10° SSW visible
